Overview Statistics Trail Chart Weather Telemetry Raw packets
 

This is the latest recevied weather packets stored in our database for station/object KC9TVS-13. If no packets are shown the sender has not sent any weather packets the latest 10 day(s).

<< 1 2 3 4 5 6 >>
Time Temp. Humidity Pressure Rain* Wind** Luminosity Snow
1788565718 28.89° C 78% 1013.4 hPa 0 mm - 11 W/m² -
1788565418 28.89° C 78% 1013.5 hPa 0 mm - 16 W/m² -
1788565119 28.89° C 78% 1013.5 hPa 0 mm - 23 W/m² -
1788564819 28.89° C 78% 1013.4 hPa 0 mm - 30 W/m² -
1788564519 29.44° C 78% 1013.4 hPa 0 mm - 40 W/m² -
1788564218 29.44° C 79% 1013.5 hPa 0 mm - 54 W/m² -
1788563918 29.44° C 79% 1013.5 hPa 0 mm - 88 W/m² -
1788563620 29.44° C 78% 1013.5 hPa 0 mm - 125 W/m² -
1788563318 29.44° C 79% 1013.5 hPa 0 mm - 148 W/m² -
1788563016 28.89° C 79% 1013.6 hPa 0 mm - 172 W/m² -
1788562716 28.89° C 78% 1013.6 hPa 0 mm - 155 W/m² -
1788562417 28.89° C 80% 1013.5 hPa 0 mm - 221 W/m² -
1788562124 28.89° C 81% 1013.6 hPa 0 mm - 125 W/m² -
1788561818 28.89° C 81% 1013.4 hPa 0 mm - 120 W/m² -
1788561518 28.89° C 81% 1013.4 hPa 0 mm - 246 W/m² -
1788561216 28.89° C 81% 1013.5 hPa 0 mm - 295 W/m² -
1788560917 28.89° C 81% 1013.6 hPa 0 mm - 192 W/m² -
1788560617 28.89° C 80% 1013.5 hPa 0 mm - 283 W/m² -
1788560316 28.89° C 81% 1013.7 hPa 0 mm - 332 W/m² -
1788560015 29.44° C 81% 1013.8 hPa 0 mm - 374 W/m² -
1788559714 29.44° C 83% 1013.5 hPa 0 mm - 385 W/m² -
1788559415 29.44° C 82% 1013.4 hPa 0 mm - 334 W/m² -
1788559114 29.44° C 81% 1013.4 hPa 0 mm - 373 W/m² -
1788558814 29.44° C 81% 1013.4 hPa 0 mm - 313 W/m² -
1788558516 29.44° C 80% 1013.5 hPa 0 mm - 318 W/m² -

* Rain latest hour (hover to see other rain measurements)
** Current wind speed in m/s (hover to see current wind gust speed)